[[{"header":{"parameterUnit":"m.s-1","parameterCategory":1,"la1":30.2991,"la2":30.254,"lo1":-89.0895,"lo2":-89.0444,"dy":0.0017,"dx":0.0017,"nx":28,"ny":28,"refTime":"2025-04-12T21:00:00:Z","depth":0,"parameterNumber":2,"parameterNumberName":"U-component_of_WINDS"},"data":[0,0,0,0,0,0,0,0,0,0,0,0,0,0,0,0,0,0,0,0,0,0,0,0,0,0,0,0,0,0,0,0,0,0,0,0,0,0,0,0,0,0,0,0,0,0,0,0,0,0,0,0,0,0,0,0,0,0,3.1182,3.1182,0,3.1216,3.1216,3.1216,3.1178,3.1177,3.1176,3.1174,3.121,3.1212,3.1214,0,0,0,0,0,0,0,0,0,0,0,0,0,3.1084,3.1086,3.1182,3.1182,3.1183,3.1216,3.1216,3.1217,3.1179,3.1177,3.1175,3.1174,3.1209,3.1212,3.1214,0,0,0,0,0,0,0,0,0,0,0,0,0,3.1123,3.1087,3.1182,3.1168,3.1167,3.1215,3.1216,3.1217,3.1179,3.1177,3.1175,3.1173,3.1208,3.1211,3.1215,3.1279,0,0,3.1225,3.1227,0,0,0,0,0,0,0,0,3.1121,3.1127,3.1169,3.1169,3.1168,3.1191,3.1195,3.1238,3.118,3.1174,3.1174,3.1172,3.1205,3.1209,3.122,3.1281,3.1282,3.1226,3.1228,3.1229,3.123,0,0,0,0,0,0,0,3.1118,3.1125,3.1195,3.117,3.1169,3.116,3.1163,3.1203,3.1202,3.1175,3.1172,3.1177,3.1204,3.1217,3.122,3.1283,3.1225,3.1229,3.1231,3.1232,3.1397,3.1399,0,0,0,0,0,0,3.1117,3.1123,3.1194,3.1196,3.1139,3.1163,3.1167,3.1185,3.1201,3.1201,3.1178,3.1175,3.1212,3.1216,3.1221,3.1297,3.1229,3.1232,3.1234,3.1394,3.1397,3.14,0,0,0,0,0,0,3.1115,3.1124,3.1193,3.1159,3.1167,3.1167,3.1189,3.1187,3.1199,3.1204,3.1203,3.1191,3.121,3.1217,3.1265,3.1297,3.1234,3.1237,3.1392,3.1395,3.1398,3.1448,0,0,0,0,0,0,3.1112,3.1123,3.1148,3.116,3.1169,3.1236,3.1191,3.119,3.1205,3.1201,3.1216,3.1216,3.1209,3.126,3.1268,3.1301,3.124,3.1389,3.1393,3.1397,3.1444,3.1453,3.1461,0,0,0,0,0,3.1109,3.1161,3.1149,3.1158,3.12,3.1238,3.1243,3.1234,3.1208,3.1233,3.1235,3.1215,3.1293,3.1265,3.1274,3.1308,3.1387,3.1392,3.1397,3.144,3.1451,3.1461,0,0,0,0,0,0,3.1154,3.1162,3.115,3.1207,3.1222,3.1231,3.1262,3.1246,3.1269,3.1264,3.1252,3.1255,3.1306,3.1312,3.1281,3.1371,3.1335,3.1343,3.1365,3.1376,3.1384,3.1381,3.1243,0,0,0,0,0,3.117,3.12,3.1206,3.1256,3.1264,3.1262,3.1278,3.127,3.1285,3.1291,3.1297,3.1312,3.1339,3.1358,3.1384,3.1444,3.1446,3.1472,3.1481,3.1488,3.1494,3.1525,3.1537,3.1417,3.1417,3.1417,0,0,3.1205,3.1213,3.1233,3.1265,3.1276,3.1307,3.1267,3.1302,3.1325,3.1296,3.1341,3.1346,3.1363,3.1417,3.1441,3.1423,3.1528,3.1495,3.15,3.1503,3.1532,3.1543,3.1553,3.142,3.142,3.1419,0,0,3.1283,3.1293,3.1335,3.1346,3.1362,3.136,3.137,3.1381,3.1383,3.1429,3.1407,3.1434,3.1482,3.1494,3.1506,3.1588,3.157,3.1597,3.1642,3.1672,3.1681,3.169,3.1717,3.1728,3.1603,3.1603,3.1603,0,3.1324,3.137,3.1359,3.1394,3.1409,3.1384,3.1426,3.1437,3.1461,3.1471,3.1451,3.151,3.1519,3.1575,3.1595,3.1606,3.1616,3.1595,3.1681,3.1689,3.1697,3.1723,3.1734,3.1606,3.1606,3.1605,3.1605,0,3.1418,3.145,3.1482,3.1505,3.1523,3.1562,3.1557,3.1576,3.1566,3.1566,3.1612,3.1622,3.1648,3.1661,3.1652,3.1715,3.1704,3.1683,3.1647,3.1711,3.1736,3.1746,3.161,3.1609,3.1608,3.1608,0,0,3.1526,3.1541,3.1553,3.1562,3.1578,3.1602,3.164,3.1665,3.1682,3.1699,3.1729,3.177,3.175,3.1764,3.1756,3.1783,3.1845,3.1758,3.1758,3.1773,3.1914,3.1929,3.1941,3.1833,3.1835,3.1837,3.1912,0,3.1603,3.1668,3.1658,3.172,3.1749,3.1725,3.1757,3.177,3.1771,3.1795,3.1796,3.1824,3.1796,3.1804,3.183,3.1832,3.1873,3.1826,3.1861,3.1862,3.1856,3.1954,3.197,3.2041,3.1922,3.1923,3.1924,0,3.1702,3.1722,3.1787,3.1796,3.1808,3.1837,3.1859,3.1883,3.1897,3.1895,3.191,3.1897,3.1933,3.1897,3.1947,3.1916,3.1929,3.1932,3.1935,3.1937,3.1897,3.1957,3.2063,3.2073,3.194,3.1938,3.1937,0,3.1772,3.1816,3.1859,3.1868,3.1881,3.1902,3.1908,3.192,3.1935,3.1954,3.1964,3.1987,3.2,3.2018,3.2011,3.1986,3.2062,3.2026,3.2061,3.2061,3.2078,3.2077,3.2186,3.2088,3.2088,3.2088,3.2088,0,3.1859,3.19,3.1891,3.1918,3.1962,3.195,3.1994,3.1998,3.2008,3.2034,3.2015,3.2041,3.2031,3.2055,3.205,3.2091,3.2098,3.2097,3.2095,3.2098,3.2098,3.2106,3.2101,3.2091,3.209,3.209,3.2089,0,3.1945,3.1941,3.1987,3.1995,3.1998,3.203,3.2036,3.2061,3.206,3.2094,3.2101,3.21,3.2127,3.2122,3.2154,3.215,3.2201,3.2194,3.2196,3.2194,3.2229,3.2226,3.2347,3.2362,3.2256,3.2257,3.2258,0,3.2,3.203,3.2041,3.2058,3.2065,3.2092,3.2107,3.2097,3.2114,3.2131,3.2154,3.218,3.22,3.2246,3.2247,3.227,3.2262,3.2303,3.2266,3.2268,3.2261,3.2259,3.2262,3.231,3.2312,3.2313,3.2314,0,3.2098,3.2094,3.2117,3.2139,3.2158,3.2175,3.219,3.2204,3.2195,3.2215,3.2243,3.2259,3.229,3.2315,3.2337,3.2343,3.2327,3.2325,3.2334,3.2338,3.2337,3.2336,3.2215,3.2322,3.2322,3.2321,3.232,3.232,3.217,3.2195,3.2206,3.2232,3.2242,3.2256,3.2279,3.228,3.2304,3.2328,3.232,3.2352,3.2364,3.2391,3.2399,3.2423,3.2408,3.2422,3.2425,3.2428,3.2432,3.2334,3.2427,3.2427,3.2427,3.2427,3.2426,0,3.2265,3.2271,3.2295,3.2316,3.2336,3.2319,3.2334,3.2352,3.238,3.2392,3.2412,3.2443,3.2468,3.2471,3.2494,3.2513,3.2506,3.2519,3.2517,3.2518,3.2445,3.2434,3.2524,3.2524,3.2524,3.2524,3.2524,3.2524,3.2317,3.2358,3.2356,3.2402,3.2407,3.2437,3.2447,3.246,3.247,3.2505,3.2525,3.2527,3.2535,3.2559,3.258,3.258,3.2589,3.2605,3.2602,3.2534,3.2524,3.2514,3.2504,3.2608,3.2608,3.2674,3.2674,3.2675]},{"header":{"parameterUnit":"m.s-1","parameterCategory":1,"la1":30.2991,"la2":30.254,"lo1":-89.0895,"lo2":-89.0444,"dy":0.0017,"dx":0.0017,"nx":28,"ny":28,"refTime":"2025-04-12T21:00:00:Z","depth":0,"parameterNumber":3,"parameterNumberName":"V-component_of_WINDS"},"data":[0,0,0,0,0,0,0,0,0,0,0,0,0,0,0,0,0,0,0,0,0,0,0,0,0,0,0,0,0,0,0,0,0,0,0,0,0,0,0,0,0,0,0,0,0,0,0,0,0,0,0,0,0,0,0,0,0,0,5.5226,5.5227,0,5.5317,5.5318,5.5319,5.5334,5.5333,5.5332,5.5331,5.5417,5.542,5.5423,0,0,0,0,0,0,0,0,0,0,0,0,0,5.5058,5.5061,5.5226,5.5227,5.5228,5.5317,5.5318,5.5319,5.5334,5.5333,5.5332,5.5331,5.5416,5.5419,5.5423,0,0,0,0,0,0,0,0,0,0,0,0,0,5.5138,5.5062,5.5226,5.5246,5.5249,5.5317,5.5318,5.532,5.5334,5.5333,5.5332,5.5331,5.5415,5.5419,5.5424,5.5474,0,0,5.5437,5.5439,0,0,0,0,0,0,0,0,5.5133,5.5144,5.5242,5.5245,5.5248,5.5313,5.529,5.5371,5.5334,5.5301,5.5331,5.533,5.5383,5.539,5.5409,5.5478,5.5482,5.5438,5.544,5.5442,5.5444,0,0,0,0,0,0,0,5.5128,5.514,5.5262,5.5244,5.5247,5.5249,5.5259,5.5306,5.5347,5.5304,5.5306,5.5317,5.5384,5.5405,5.5411,5.5483,5.5438,5.5442,5.5444,5.5446,5.5599,5.56,0,0,0,0,0,0,5.5119,5.5135,5.5259,5.5264,5.5187,5.5253,5.5264,5.5293,5.5347,5.5354,5.5317,5.5317,5.5398,5.5406,5.5414,5.5478,5.5442,5.5447,5.5449,5.5597,5.5599,5.56,0,0,0,0,0,0,5.5116,5.513,5.5255,5.52,5.5216,5.5257,5.5289,5.5296,5.5316,5.5357,5.5364,5.5331,5.5397,5.5408,5.546,5.5481,5.5449,5.5453,5.5596,5.5598,5.56,5.5604,0,0,0,0,0,0,5.5111,5.5129,5.515,5.5201,5.5219,5.5301,5.5291,5.5298,5.5325,5.5325,5.5372,5.5378,5.5397,5.5453,5.5464,5.5486,5.5456,5.5594,5.5597,5.5599,5.5602,5.5606,5.561,0,0,0,0,0,5.5105,5.5146,5.5151,5.5166,5.5247,5.5303,5.5313,5.5336,5.5327,5.5347,5.5373,5.5377,5.5477,5.5458,5.5471,5.5495,5.5593,5.5596,5.5599,5.5601,5.5606,5.5609,0,0,0,0,0,0,5.5094,5.5153,5.5159,5.5219,5.5256,5.5305,5.5332,5.534,5.5378,5.5376,5.5401,5.5411,5.5462,5.5483,5.5462,5.5547,5.5534,5.5539,5.5531,5.5536,5.5539,5.5533,5.546,0,0,0,0,0,5.5099,5.5142,5.519,5.5238,5.5256,5.5291,5.5316,5.5331,5.5369,5.5384,5.5413,5.5448,5.5488,5.5513,5.5551,5.5606,5.5615,5.5628,5.5632,5.5634,5.5639,5.5669,5.5675,5.561,5.561,5.561,0,0,5.5109,5.5147,5.5172,5.5237,5.5267,5.5308,5.5304,5.5347,5.5378,5.5389,5.5441,5.5464,5.5504,5.5558,5.5583,5.5578,5.5659,5.5638,5.564,5.5643,5.5673,5.5679,5.5684,5.5613,5.5612,5.5612,0,0,5.5149,5.5182,5.5226,5.5257,5.5304,5.5327,5.5337,5.5386,5.5402,5.5455,5.5465,5.55,5.5567,5.5596,5.5619,5.567,5.5674,5.5681,5.5699,5.5728,5.5734,5.5738,5.5756,5.5762,5.5686,5.5686,5.5686,0,5.5154,5.522,5.5246,5.5291,5.5318,5.5334,5.5377,5.5405,5.5461,5.5479,5.5472,5.5558,5.5586,5.5646,5.5659,5.5677,5.5689,5.5676,5.5731,5.5736,5.5741,5.5758,5.5765,5.5686,5.5686,5.5686,5.5686,0,5.5224,5.5269,5.5298,5.5356,5.5386,5.543,5.5461,5.5488,5.55,5.5523,5.5576,5.5611,5.5657,5.5672,5.5683,5.5734,5.5729,5.5727,5.5714,5.5747,5.5764,5.577,5.5687,5.5687,5.5687,5.5687,0,0,5.5259,5.5332,5.5342,5.5368,5.5421,5.5455,5.5498,5.5546,5.5569,5.5607,5.5643,5.57,5.5698,5.5725,5.5739,5.5765,5.5802,5.5759,5.576,5.5766,5.586,5.5862,5.5869,5.5806,5.5807,5.5808,5.5857,0,5.5305,5.5386,5.5411,5.5478,5.5519,5.5534,5.5572,5.5607,5.563,5.5666,5.5689,5.573,5.5725,5.5741,5.5767,5.5792,5.5822,5.5789,5.5838,5.5839,5.5827,5.5878,5.5879,5.5923,5.5863,5.5864,5.5865,0,5.5369,5.5411,5.5483,5.5532,5.555,5.5583,5.5629,5.5664,5.5704,5.5718,5.5749,5.5761,5.5805,5.579,5.585,5.5827,5.5848,5.5864,5.5866,5.5871,5.5854,5.5884,5.5938,5.5944,5.5876,5.5875,5.5874,0,5.5387,5.5461,5.5514,5.5536,5.5594,5.5617,5.5642,5.5681,5.5708,5.5747,5.5765,5.5807,5.583,5.5861,5.5884,5.5872,5.5942,5.5929,5.5953,5.5953,5.5967,5.5966,5.6025,5.5981,5.5981,5.5981,5.5981,0,5.5435,5.5478,5.5523,5.5555,5.5603,5.5631,5.5677,5.5702,5.5737,5.5773,5.5788,5.582,5.5849,5.5885,5.5902,5.5949,5.5959,5.597,5.5974,5.5969,5.5968,5.5983,5.598,5.5983,5.5982,5.5982,5.5982,0,5.5463,5.5495,5.5553,5.5605,5.5619,5.5652,5.5694,5.5725,5.5749,5.5794,5.5806,5.5842,5.5885,5.5911,5.5965,5.5976,5.6028,5.6031,5.6015,5.6017,5.604,5.6037,5.6111,5.6122,5.6071,5.6071,5.6071,0,5.5491,5.5525,5.5581,5.5608,5.5634,5.5676,5.5704,5.5732,5.5761,5.581,5.5834,5.5879,5.5916,5.5984,5.6013,5.6054,5.6058,5.6081,5.6064,5.6057,5.6058,5.6056,5.6059,5.6083,5.6084,5.6084,5.6084,0,5.5538,5.5553,5.5595,5.5643,5.5677,5.5715,5.5753,5.5773,5.5807,5.5838,5.5884,5.5913,5.597,5.6013,5.6057,5.608,5.6087,5.609,5.6098,5.6092,5.6082,5.6088,5.6023,5.6088,5.6087,5.6087,5.6087,5.6087,5.5567,5.5598,5.5643,5.5689,5.5721,5.5757,5.5789,5.5817,5.5857,5.5907,5.592,5.5968,5.6006,5.6067,5.6091,5.6127,5.6123,5.6134,5.6137,5.6139,5.614,5.6077,5.6135,5.6135,5.6135,5.6134,5.6134,0,5.5615,5.5645,5.5688,5.5742,5.5778,5.5785,5.5827,5.5856,5.5899,5.5935,5.5973,5.6025,5.6067,5.6101,5.6144,5.6166,5.6171,5.6177,5.6175,5.618,5.6141,5.613,5.6172,5.6172,5.6172,5.6172,5.6172,5.6172,5.5644,5.5697,5.5717,5.5786,5.5815,5.5864,5.5888,5.592,5.5949,5.6008,5.6045,5.6067,5.6102,5.6148,5.6187,5.6195,5.621,5.6216,5.6224,5.6187,5.6183,5.6179,5.6169,5.6219,5.6219,5.6261,5.6261,5.6261]}]]